Regional Weather Roundup
Issued by NWS

Home | Current Version | Previous Version | Text Only | Print | Product List | Glossary Off
Versions: 1 2 3 4 5 6 7 8 9 10 11 12 13 14 15 16 17 18 19 20 21 22 23 24 25 26 27 28 29 30 31 32 33 34 35 36 37 38 39 40 41 42 43 44 45 46 47 48 49 50

000
ASUS43 KDTX 220910
RWRMI
MICHIGAN HOURLY REGIONAL WEATHER ROUNDUP
NATIONAL WEATHER SERVICE DETROIT/PONTIAC MI
400 AM EST WED NOV 22 2017

NOTE: "FAIR" INDICATES FEW OR NO CLOUDS BELOW 12,000 FEET WITH NO
SIGNIFICANT WEATHER AND/OR OBSTRUCTION TO VISIBILITY.

MIZ047>049-052>055-059>063-066>070-074>076-081>083-221000-
SOUTHEAST LOWER MICHIGAN

CITY           SKY/WX    TMP DP  RH WIND       PRES   REMARKS
ADRIAN         CLOUDY    31  20  63 N13       30.16R WCI  21
ALMA           CLOUDY    29  16  58 W6        30.18R WCI  23
ANN ARBOR      CLOUDY    31  19  61 NW8       30.14R WCI  23
BAD AXE        CLOUDY    29  16  58 NW13      30.12S WCI  19
CARO           CLOUDY    30  21  69 NW8       30.13S WCI  22
DETROIT CITY   CLOUDY    32  21  64 NW8       30.13R WCI  25
DETROIT        CLOUDY    33  20  58 N10       30.14R WCI  25
FLINT          CLOUDY    30  18  60 NW14      30.15R WCI  19
GROSSE ILE     CLOUDY    33  21  61 NW10G20   30.13R WCI  24
HILLSDALE      CLOUDY    30  21  69 NW10      30.13R WCI  21
HOWELL         CLOUDY    30  21  68 NW7       30.14R WCI  23

CITY           SKY/WX    TMP DP  RH WIND       PRES   REMARKS
JACKSON        CLOUDY    31  19  61 NW8       30.15R WCI  23
LAMBERTVILLE   CLOUDY    35  24  65 N5        30.14R WCI  31
LANSING        CLOUDY    30  20  66 N12       30.17R WCI  20
LAPEER         CLOUDY    30  20  65 NW9       30.12S WCI  22
MASON          CLOUDY    32  20  62 NW12      30.15R WCI  23
MONROE         CLOUDY    34  20  58 NW12      30.13R WCI  25
MT. CLEMENS    CLOUDY    32  22  66 N10       30.11R WCI  23
PONTIAC        CLOUDY    30  19  63 NW9       30.11R WCI  22
PORT HOPE        N/A     31  18  58 NW16G29   30.09S WCI  20
PORT HURON     CLOUDY    30  19  64 NW7       30.12R WCI  23
TRI CITIES     CLOUDY    29  19  66 NW13      30.16R WCI  19
MIDLAND        CLOUDY    30  18  60 W5        30.16R WCI  25
TROY           CLOUDY    33  20  57 NW10G16   30.14R WCI  25
SAGINAW HB     CLOUDY    30  19  64 NW10      30.15S WCI  21
$$
MIZ043>046-050>051-056>058-064>065-071>073-077>080-221000-
SOUTHWEST LOWER MICHIGAN

CITY           SKY/WX    TMP DP  RH WIND       PRES   REMARKS
BATTLE CREEK   CLOUDY    31  19  61 N12       30.17R WCI  22
BENTON HARBOR  CLOUDY    33  21  61 NW8       30.21R WCI  26
BIG RAPIDS     CLOUDY    28  17  64 W5        30.17R WCI  22
COLDWATER      CLOUDY    31  20  64 N7        30.16R WCI  24
FREMONT        CLOUDY    28  19  68 NW6       30.20R WCI  22
HOLLAND        CLOUDY    30  17  58 N10       30.22R WCI  21
GRAND RAPIDS   CLOUDY    29  18  63 NW12      30.20R WCI  19
IONIA          CLOUDY    29  17  59 N13G23    30.18R WCI  19
KALAMAZOO      CLOUDY    31  20  63 NW12      30.18R WCI  22
LUDINGTON      CLOUDY    29  17  61 N8        30.21R WCI  21
MARSHALL       CLOUDY    30  18  60 NW3       30.16R
MOUNT PLEASANT CLOUDY    30  16  56 W9        30.16R WCI  21
MUSKEGON       CLOUDY    30  17  58 N8        30.22R WCI  22
SOUTH HAVEN    CLOUDY    33  21  61 N9G17     30.21R WCI  26
$$
MIZ016>042-221000-
NORTHERN LOWER MICHIGAN

CITY           SKY/WX    TMP DP  RH WIND       PRES   REMARKS
ALPENA         FLURRIES  26  22  84 NW9       30.13R WCI  17
BEAVER ISLAND  CLOUDY    28  20  71 NW8       30.17R WCI  20
BELLAIRE       LGT SNOW  27  26  94 CALM      30.17R
CADILLAC       CLOUDY    27  16  65 NW12      30.13R WCI  16
CHARLEVOIX     CLOUDY    30  15  54 NW16      30.18R WCI  19
FRANKFORT      CLOUDY    30  17  59 NW8       30.20R WCI  23
GAYLORD        LGT SNOW  23  20  88 CALM      30.11R FOG
GRAYLING       FLURRIES  25  20  82 W5        30.13R WCI  19
HARBOR SPRINGS CLOUDY    28  17  66 NW7       30.15R WCI  20
HOUGHTON LAKE  FLURRIES  25  22  88 NW3       30.13R
MANISTEE       FLURRIES  29  19  66 NW10G17   30.20R WCI  20
OSCODA         CLEAR     21  13  71 W6        30.13R WCI  14
PELLSTON       MOCLDY    27  18  69 NW12      30.15R WCI  17
ROGERS CITY    FLURRIES  27  19  74 N12       30.14R WCI  16
TRAVERSE CITY  CLOUDY    30  17  58 NW9       30.17R WCI  22
$$
MIZ007>008-015-221000-
EASTERN UPPER MICHIGAN

CITY           SKY/WX    TMP DP  RH WIND       PRES   REMARKS
KINROSS        FLURRIES  20  17  88 SW3       30.13R
MACKINAC ISLAN CLOUDY    26  20  77 NE3       30.14R
NEWBERRY       CLOUDY    21  19  92 W6        30.14R WCI  14
S. S. MARIE    CLOUDY    21  13  71 CALM      30.12R
MUNISING         N/A     26  21  81 W7G17     30.17R WCI  18
$$
MIZ004>006-011>014-085-221000-
CENTRAL UPPER MICHIGAN

CITY           SKY/WX    TMP DP  RH WIND       PRES   REMARKS
MANISTIQUE     FLURRIES  21  17  82 W8        30.18R WCI  12
ESCANABA       CLEAR     22  16  78 NW10      30.22R WCI  11
MENOMINEE      CLOUDY    25  15  66 NW5       30.25R WCI  19
SAWYER-GWINN   CLOUDY    20  17  85 W9        30.17S WCI  10
$$
MIZ001>003-009>011-084-221000-
WESTERN UPPER MICHIGAN

CITY           SKY/WX    TMP DP  RH WIND       PRES   REMARKS
IRON MOUNTAIN  CLOUDY    22  13  68 NW6       30.19R WCI  14
HOUGHTON       CLOUDY    23  14  68 NW15      30.17R WCI  10
COPPER HARBOR    N/A     28  21  75 N16       30.18R WCI  16
IRONWOOD       FLURRIES  18  13  80 W12       30.24S WCI   5
$$

ABBREVIATIONS USED IN REMARKS
   TC - TEMPERATURE IN CELSIUS
  WCI - WIND CHILL INDEX
   HX - HEAT INDEX
  VSB - VISIBILITY





USA.gov is the U.S. government's official web portal to all federal, state and local government web resources and services.